Find Starlink 2330

NORAD ID: 47874 Int'l Des: 2021-021 Owner: SPXS Country: US Constellation: starlink operational
LEOCIRCULARSTARLINK_TYPE

現在のビュー

3D地球を読み込み中...

About Starlink 2330

Starlink 2330 (NORAD 47874) is a starlink constellation satellite (v1.0) launched Mar 14, 2021 by SPXS of US. It operates in LEO, CIRCULAR, STARLINK_TYPE orbit with a mass of 260.00 kg.

Starlink 2330について

説明を読み込み中...

次回通過

Passes for default location (London). Set your location on the main map for personalized predictions.

高度履歴

Loading altitude history...

軌道要素

1 47874U 21021Q 26196.87827884 .00044851 00000-0 10944-2 0 9994
2 47874 53.1435 337.1495 0000783 175.9732 184.1279 15.40448610296649
Epoch: Jul 15, 2026 • Age: 19 hours

現在のステータス

高度 444.5 km
遠地点 / 近地点 N/A
速度 7.65 km/s
衛星直下点 3.95°N, 31.95°W
打ち上げ日 Mar 14, 2021
運用期間 5.3 years
タイプ internet

技術仕様

分類 Payload
質量 260.00 kg
乾燥質量 248.00 kg
総質量 260.00 kg
長さ 0.20 m
直径 2.80 m
スパン 9.00 m
形状 Box + pan
製造者 SPXS
バスタイプ Starlink
フェーズステータス In Orbit
所有者/国 SPXS/US

Most Searched